Cancun, Mexico

11:07 PM on June 22, 2017 (GMT +0000)
Cancun International

Weather History for MMUN - September, 2013

Change the Weather History Date:

Friday, September 27, 2013

  Actual Average Record
Temperature  
Mean Temperature 81 °F -  
Max Temperature 87 °F 86 °F 93 °F (1997)
Min Temperature 75 °F 72 °F 71 °F (2000)
Cooling Degree Days 16    
Growing Degree Days 31 (Base 50)    
Moisture  
Dew Point 76 °F    
Average Humidity 86    
Maximum Humidity 100    
Minimum Humidity 70    
Precipitation  
Precipitation 0.00 in - - ()
Sea Level Pressure  
Sea Level Pressure 29.91 in    
Wind  
Wind Speed 3 mph ()    
Max Wind Speed 10 mph    
Max Gust Speed -    
Visibility 7.0 miles    
Events      
Averages and records for this station are not official NWS values.
T = Trace of Precipitation, MM = Missing Value Source: Averaged Metar Reports

Daily Weather History Graph

Daily Weather History Graph

Search for Another Location

Airport or City:

Trip Planner

Search our weather history database for the weather conditions in past years. The results will help you decide how hot, cold, wet, or windy it might be!

Date:

Astronomy

Sep. 27, 2013 Rise Set
Actual Time 6:37 AM CDT 6:38 PM CDT
Civil Twilight 6:15 AM CDT 7:00 PM CDT
Nautical Twilight 5:49 AM CDT 7:26 PM CDT
Astronomical Twilight 5:23 AM CDT 7:52 PM CDT
Moon 12:13 AM CDT (9/27) 1:37 PM CDT (9/27)
Length of Visible Light 12h 45m
Length of Day
12h 01m
Last Quarter, 45% of the Moon is Illuminated
Sep 27
Last Quarter
Oct 4
New
Oct 11
First Quarter
Oct 18
Full
Oct 26
Last Quarter

Hourly Weather History & Observations

Time (CDT) Temp. Heat Index Dew Point Humidity Pressure Visibility Wind Dir Wind Speed Gust Speed Precip Events Conditions
12:45 AM 77.0 °F - 77.0 °F 100% 29.90 in 7.0 mi Calm Calm - N/A   Partly Cloudy
1:44 AM 77.0 °F - 75.2 °F 94% 29.91 in 7.0 mi Calm Calm - N/A   Scattered Clouds
2:44 AM 77.0 °F - 75.2 °F 94% 29.90 in 7.0 mi South 5.8 mph - N/A   Scattered Clouds
3:46 AM 77.0 °F - 75.2 °F 94% 29.89 in 7.0 mi Calm Calm - N/A   Scattered Clouds
4:45 AM 75.2 °F - 75.2 °F 100% 29.89 in 7.0 mi Calm Calm - N/A   Scattered Clouds
5:44 AM 75.2 °F - 75.2 °F 100% 29.89 in 7.0 mi Calm Calm - N/A   Scattered Clouds
6:43 AM 75.2 °F - 73.4 °F 94% 29.92 in 7.0 mi Calm Calm - N/A   Partly Cloudy
7:46 AM 78.8 °F - 77.0 °F 94% 29.92 in 6.0 mi North 2.3 mph - N/A   Scattered Clouds
8:41 AM 82.4 °F 92.4 °F 78.8 °F 89% 29.94 in 7.0 mi Calm Calm - N/A   Scattered Clouds
9:45 AM 86.0 °F 96.9 °F 77.0 °F 74% 29.94 in 7.0 mi East 5.8 mph - N/A   Mostly Cloudy
10:43 AM 86.0 °F 99.3 °F 78.8 °F 79% 29.95 in 7.0 mi ESE 5.8 mph - N/A   Mostly Cloudy
11:40 AM 86.0 °F 96.9 °F 77.0 °F 74% 29.94 in 7.0 mi ENE 4.6 mph - N/A   Mostly Cloudy
12:44 PM 86.0 °F 96.9 °F 77.0 °F 74% 29.93 in 7.0 mi East 9.2 mph - N/A   Mostly Cloudy
1:42 PM 87.8 °F 99.7 °F 77.0 °F 70% 29.90 in 7.0 mi ENE 5.8 mph - N/A   Scattered Clouds
2:42 PM 87.8 °F 99.7 °F 77.0 °F 70% 29.89 in 7.0 mi East 10.4 mph - N/A   Scattered Clouds
3:45 PM 86.0 °F 96.9 °F 77.0 °F 74% 29.89 in 7.0 mi SE 9.2 mph - N/A   Partly Cloudy
4:48 PM 86.0 °F 95.1 °F 75.2 °F 70% 29.89 in 7.0 mi SE 5.8 mph - N/A   Partly Cloudy
5:48 PM 82.4 °F 90.9 °F 77.0 °F 84% 29.89 in 7.0 mi ESE 5.8 mph - N/A   Scattered Clouds
6:47 PM 82.4 °F 90.9 °F 77.0 °F 84% 29.88 in 7.0 mi East 4.6 mph - N/A   Scattered Clouds
7:48 PM 80.6 °F 86.2 °F 75.2 °F 84% 29.91 in 7.0 mi ENE 3.5 mph - N/A   Partly Cloudy
8:44 PM 80.6 °F 87.1 °F 77.0 °F 89% 29.93 in 7.0 mi NE 2.3 mph - N/A   Scattered Clouds
9:43 PM 78.8 °F - 77.0 °F 94% 29.94 in 7.0 mi NE 3.5 mph - N/A   Scattered Clouds
10:43 PM 78.8 °F - 75.2 °F 89% 29.94 in 7.0 mi ENE 2.3 mph - N/A   Scattered Clouds
11:43 PM 77.0 °F - 75.2 °F 94% 29.94 in 7.0 mi East 2.3 mph - N/A   Scattered Clouds